Clinton-Sherman, OK

6:01 PM CDT on May 24, 2017 (GMT -0500)
Clinton-Sherman

Weather History for KCSM - February, 2013

Change the Weather History Date:

Tuesday, February 5, 2013

  Actual Average Record
Temperature  
Mean Temperature 49 °F -  
Max Temperature 64 °F 49 °F 71 °F (2009)
Min Temperature 34 °F 29 °F 6 °F (2014)
Degree Days  
Heating Degree Days 16    
Moisture  
Dew Point 32 °F    
Average Humidity 57    
Maximum Humidity 93    
Minimum Humidity 26    
Precipitation  
Precipitation 0.00 in - - ()
Sea Level Pressure  
Sea Level Pressure 30.00 in    
Wind  
Wind Speed 5 mph (SE)    
Max Wind Speed 12 mph    
Max Gust Speed -    
Visibility 9 miles    
Events Fog    
Averages and records for this station are not official NWS values.
T = Trace of Precipitation, MM = Missing Value Source: NWS Daily Summary

Daily Weather History Graph

Daily Weather History Graph

Search for Another Location

Airport or City:

Trip Planner

Search our weather history database for the weather conditions in past years. The results will help you decide how hot, cold, wet, or windy it might be!

Date:

Astronomy

Feb. 05, 2013 Rise Set
Actual Time 7:32 AM CST 6:09 PM CST
Civil Twilight 7:06 AM CST 6:35 PM CST
Nautical Twilight 6:36 AM CST 7:06 PM CST
Astronomical Twilight 6:06 AM CST 7:35 PM CST
Moon 3:12 AM CST (2/5) 1:32 PM CST (2/5)
Length of Visible Light 11h 29m
Length of Day
10h 36m
Waning Crescent, 26% of the Moon is Illuminated
Feb 5
Waning Crescent
Feb 10
New
Feb 17
First Quarter
Feb 25
Full
Mar 4
Last Quarter

Hourly Weather History & Observations

Time (CST) Temp. Windchill Dew Point Humidity Pressure Visibility Wind Dir Wind Speed Gust Speed Precip Events Conditions
12:53 AM 41.0 °F 39.0 °F 25.0 °F 53% 29.96 in 10.0 mi East 3.5 mph - N/A   Clear
1:53 AM 42.1 °F 40.2 °F 25.0 °F 51% 29.93 in 10.0 mi ESE 3.5 mph - N/A   Clear
2:53 AM 43.0 °F 38.8 °F 25.0 °F 49% 29.92 in 10.0 mi ESE 6.9 mph - N/A   Clear
3:53 AM 39.9 °F 37.8 °F 24.1 °F 53% 29.93 in 10.0 mi East 3.5 mph - N/A   Clear
4:53 AM 36.0 °F - 24.1 °F 62% 29.95 in 10.0 mi Calm Calm - N/A   Clear
5:53 AM 35.1 °F - 25.0 °F 67% 29.96 in 10.0 mi Calm Calm - N/A   Clear
6:53 AM 34.0 °F 28.0 °F 25.0 °F 70% 29.97 in 10.0 mi South 6.9 mph - N/A   Clear
7:53 AM 34.0 °F 29.8 °F 26.1 °F 73% 30.00 in 10.0 mi South 4.6 mph - N/A   Clear
8:53 AM 41.0 °F - 30.9 °F 67% 30.02 in 10.0 mi Calm Calm - N/A   Clear
9:53 AM 48.0 °F - 35.1 °F 61% 30.02 in 10.0 mi Calm Calm - N/A   Clear
10:53 AM 54.0 °F - 33.1 °F 45% 30.04 in 10.0 mi SW 3.5 mph - N/A   Clear
11:53 AM 59.0 °F - 33.1 °F 38% 30.04 in 10.0 mi WSW 3.5 mph - N/A   Clear
12:53 PM 61.0 °F - 30.0 °F 31% 30.02 in 10.0 mi SW 3.5 mph - N/A   Clear
1:53 PM 63.0 °F - 28.9 °F 28% 29.99 in 10.0 mi Calm Calm - N/A   Clear
2:53 PM 64.9 °F - 30.0 °F 27% 29.98 in 10.0 mi NE 9.2 mph - N/A   Clear
3:53 PM 64.9 °F - 28.9 °F 26% 29.97 in 10.0 mi ENE 9.2 mph - N/A   Clear
4:53 PM 64.0 °F - 28.9 °F 27% 29.98 in 10.0 mi East 6.9 mph - N/A   Clear
5:53 PM 60.1 °F - 30.0 °F 32% 29.99 in 10.0 mi East 8.1 mph - N/A   Clear
6:53 PM 55.9 °F - 27.0 °F 33% 30.00 in 10.0 mi East 4.6 mph - N/A   Clear
7:53 PM 53.1 °F - 30.0 °F 41% 30.02 in 10.0 mi East 11.5 mph - N/A   Clear
8:53 PM 48.9 °F - 30.0 °F 48% 30.03 in 10.0 mi ESE 8.1 mph - N/A   Clear
9:53 PM 42.1 °F 38.4 °F 32.0 °F 67% 30.04 in 10.0 mi SE 5.8 mph - N/A   Clear
10:36 PM 41.0 °F 36.4 °F 33.8 °F 76% 30.04 in 10.0 mi South 6.9 mph - N/A   Partly Cloudy
10:49 PM 44.6 °F 40.7 °F 35.6 °F 71% 30.04 in 10.0 mi South 6.9 mph - N/A   Mostly Cloudy
10:50 PM 45.0 °F 41.2 °F 37.0 °F 74% 30.04 in 10.0 mi South 6.9 mph - N/A   Mostly Cloudy
11:24 PM 48.2 °F - 46.4 °F 93% 30.04 in 2.5 mi SSW 8.1 mph - N/A   Overcast
11:34 PM 48.2 °F - 46.4 °F 93% 30.03 in 0.8 mi SSW 6.9 mph - N/A   Overcast
11:37 PM 48.2 °F - 46.4 °F 93% 30.03 in 0.5 mi SSW 8.1 mph - N/A Fog Fog
11:53 PM 48.9 °F - 46.9 °F 93% 30.01 in 0.2 mi South 8.1 mph - 0.00 in Fog Fog